EW6762 Weather Reports


time (UTC)temp
C
wind
direction
speed
KPH
gust
KPH
rain 1hr
cm
rain 24hr
cm
rain mn
cm
humidity
%
barometer
mb
20260504150314 23 229 4.8 9.7 0.00 0.00 0.00 50 1018.4
20260504140321 22 111 3.2 6.4 0.00 0.00 0.00 60 1018.6
20260504130335 17 153 6.4 12.9 0.00 0.00 0.00 74 1018.5
20260504120314 13 180 6.4 11.3 0.00 0.00 0.00 85 1018.5
20260504110325 12 126 3.2 6.4 0.00 0.00 0.00 87 1018.7
20260504100309 12 171 1.6 6.4 0.00 0.00 0.00 84 1018.6
20260504081340 13 165 3.2 9.7 0.00 0.10 0.00 81 1018.5
20260504080321 13 200 4.8 11.3 0.00 0.10 0.00 81 1018.5
20260504070320 13 182 3.2 12.9 0.00 0.10 0.00 78 1018.6
20260504050333 13 148 3.2 8.0 0.00 0.10 0.00 73 1018.9
20260504045334 13 175 3.2 8.0 0.00 0.10 0.00 72 1018.9
20260504044325 13 154 3.2 12.9 0.00 0.10 0.00 71 1018.9
20260504043325 13 105 4.8 11.3 0.00 0.10 0.00 70 1019.0
20260504042317 13 133 3.2 6.4 0.00 0.10 0.00 68 1018.9
20260504041335 13 155 1.6 4.8 0.00 0.10 0.00 68 1018.9
20260504040310 13 191 0.0 4.8 0.00 0.10 0.00 67 1018.7
20260504035323 13 188 1.6 4.8 0.00 0.10 0.03 66 1018.7
20260504034347 13 161 0.0 4.8 0.00 0.10 0.03 65 1018.7
20260504033348 13 157 1.6 3.2 0.00 0.10 0.03 64 1018.7
20260504032325 13 130 1.6 4.8 0.00 0.10 0.03 62 1018.8
20260504031329 14 94 0.0 3.2 0.00 0.10 0.03 60 1018.8
20260504030324 14 121 1.6 4.8 0.00 0.10 0.03 59 1018.8
20260504025321 14 80 1.6 3.2 0.00 0.10 0.03 59 1018.8
20260504024322 15 115 3.2 4.8 0.00 0.10 0.03 58 1018.7
20260504023316 15 90 1.6 3.2 0.00 0.10 0.03 57 1018.7
20260504022311 15 88 1.6 3.2 0.00 0.10 0.03 56 1018.7
20260504021331 15 55 0.0 3.2 0.00 0.10 0.03 57 1018.6
20260504020334 15 74 0.0 3.2 0.00 0.10 0.03 57 1018.6
20260504015310 15 62 0.0 3.2 0.00 0.10 0.03 56 1018.5
20260504014334 15 332 0.0 1.6 0.00 0.10 0.03 56 1018.4
20260504013311 15 331 0.0 1.6 0.00 0.10 0.03 56 1018.3
20260504012327 16 319 0.0 1.6 0.00 0.10 0.03 57 1018.1
20260504011330 16 319 0.0 1.6 0.00 0.10 0.03 57 1018.0
20260504010311 16 319 0.0 3.2 0.00 0.10 0.03 51 1017.8
20260504005309 17 306 0.0 1.6 0.00 0.10 0.03 52 1017.6
20260504004332 17 306 0.0 1.6 0.00 0.10 0.03 49 1017.5
20260504003331 17 306 0.0 1.6 0.00 0.10 0.03 48 1017.4
20260504002308 18 306 1.6 1.6 0.00 0.10 0.03 47 1017.4
20260504001326 18 306 0.0 0.0 0.00 0.10 0.03 45 1017.3
20260504000330 19 306 0.0 0.0 0.00 0.10 0.03 43 1017.2
20260503235326 20 306 0.0 1.6 0.00 0.10 0.03 41 1017.1
20260503234322 21 306 0.0 3.2 0.00 0.10 0.03 41 1017.1
20260503233326 21 286 3.2 6.4 0.00 0.10 0.03 38 1017.0
20260503232323 21 289 3.2 4.8 0.00 0.10 0.03 38 1017.0
20260503231321 22 275 1.6 8.0 0.00 0.10 0.03 37 1017.0
20260503230323 22 286 4.8 8.0 0.00 0.10 0.03 36 1017.0
20260503225315 22 257 4.8 12.9 0.00 0.10 0.03 37 1017.0
20260503224309 22 279 4.8 11.3 0.00 0.10 0.03 35 1017.0
20260503223316 23 275 8.0 14.5 0.00 0.10 0.03 35 1017.0
20260503222340 23 324 6.4 14.5 0.00 0.10 0.03 34 1017.0
20260503221312 23 252 6.4 20.9 0.00 0.10 0.03 34 1017.0
20260503220334 23 275 9.7 19.3 0.00 0.10 0.03 34 1017.0
20260503215309 22 281 8.0 16.1 0.00 0.10 0.03 35 1017.0
20260503214351 22 290 8.0 20.9 0.00 0.10 0.03 33 1017.0
20260503213324 23 284 9.7 16.1 0.00 0.10 0.03 37 1017.0
20260503212319 22 288 4.8 14.5 0.00 0.10 0.03 35 1017.0
20260503211344 23 286 6.4 12.9 0.00 0.10 0.03 34 1016.9
20260503210319 23 279 9.7 22.5 0.00 0.10 0.03 35 1016.9
20260503205338 23 242 4.8 16.1 0.00 0.10 0.03 36 1017.0
20260503204310 23 276 9.7 20.9 0.00 0.10 0.03 37 1017.2
20260503203309 22 281 8.0 17.7 0.00 0.10 0.03 37 1017.2
20260503202351 22 257 12.9 22.5 0.00 0.10 0.03 37 1017.3
20260503201326 22 255 6.4 20.9 0.00 0.10 0.03 38 1017.5
20260503200325 22 260 9.7 17.7 0.00 0.10 0.03 41 1017.6
20260503195320 22 229 8.0 20.9 0.00 0.20 0.03 39 1017.8
20260503194316 22 327 4.8 24.1 0.00 0.20 0.03 41 1017.9
20260503193335 22 287 9.7 17.7 0.00 0.20 0.03 40 1018.1
20260503192332 22 264 8.0 20.9 0.00 0.20 0.03 40 1018.1
20260503191325 22 249 11.3 17.7 0.00 0.20 0.03 40 1018.4
20260503190318 22 265 11.3 22.5 0.00 0.20 0.03 39 1018.6
20260503185315 21 306 8.0 24.1 0.00 0.41 0.03 41 1018.7
20260503184310 21 265 11.3 24.1 0.00 0.41 0.03 41 1018.7
20260503183327 21 338 8.0 19.3 0.00 0.41 0.03 40 1018.7
20260503182317 21 304 11.3 22.5 0.00 0.41 0.03 45 1019.0
20260503181320 20 272 12.9 22.5 0.00 0.41 0.03 44 1019.2
20260503180334 21 229 8.0 17.7 0.00 0.41 0.03 41 1019.1
20260503175309 20 139 6.4 19.3 0.00 0.61 0.03 47 1019.3
20260503174322 20 257 14.5 27.4 0.00 0.61 0.03 44 1019.4
20260503173320 20 234 8.0 24.1 0.00 0.61 0.03 46 1019.5
20260503172316 20 286 8.0 20.9 0.00 0.61 0.03 45 1019.6
20260503171309 20 289 8.0 24.1 0.00 0.61 0.03 48 1019.7
20260503170346 20 296 4.8 19.3 0.00 0.61 0.03 47 1019.8